THORAD DELTA 1 DEB, 8396

Orbit data source: Space-Track

THORAD DELTA 1 DEB, 8396 is space debris in SSO originally from a launch on Fri, 15 Nov 1974 UTC launched from the Air Force Western Test Range (AFWTR). Debris objects in space refer to the collection of defunct objects orbiting the Earth. Examples of debris include non-operational satellites, rocket bodies, and fragments generated from explosions, collisions, or faulty payload assembly.

Loading next visibility...
Identifier
8396, 1974-089BY
Orbit
SSO
Country
Flag of USUS
Related business
Manufacturer
Unknown
Mission
Spacecraft
Bus & Motor
Unknown
Mass
Unknown
Launch date (UTC)
1974-11-15 (51 years ago)
Launch vehicle
Unknown
Launch site
Air Force Western Test Range (AFWTR)
Object type
Payload
Rocket body
Debris
Shape & HBR
Unknown shape, 0.1 m
Radar Cross Section
Small (<0.1 m²)

Expand to show TLE details & history
Last TLE update: 10 hours ago

TLE from 10 hours ago
0 THORAD DELTA 1 DEB
1  8396U 74089BY  25300.45640103  .00000015  00000-0  43854-3 0  9990
2  8396 102.1487  10.9957 0064241 155.0240 332.9834 12.42756201313847
Epoch: 2025-10-27T10:57Z
TLE epoch observation values (Epoch: 2025-10-27T10:57:13.048Z)
Latitude
50.79197°
Longitude
5.85619°
Altitude
1,457.84 km
Speed
7.159 km/s
True Right ascension
13h 44m 52s
True Declination
50° 38' 19"
Sunlit
Object was in daylight at epoch
Visualization orbit readout
Latitude
Unknown
Longitude
Unknown
Altitude
Unknown
Speed
Unknown
Apparent Right ascension
Unknown
Apparent Declination
Unknown
Sunlit
N/A
Visualization observer readout
Local Sidereal Time
16:31:23
Azimuth
Unknown
Elevation
Unknown
Doppler factor
Unknown
Orbital elements
Apogee altitude
1,543.083 km
Perigee altitude
1,441.959 km
Semi-major axis
7,870.658 km
Eccentricity
0.00642
Inclination
102.1487°
RAAN
10.9957°
Arg. of periapsis
155.024°
True anomaly
332.6466°
Mean anomaly
332.9834°
Eccentric anomaly
332.81524°
Mean motion
3.10833 °/min
Orbital period
115.82 mins
BSTAR
0.00043854
Loading maneuver chart data...
Computing Atmospheric mass density...

Documentation

Showing up to 5 results
|